Other Public Products
Issued by NWS Grand Forks, ND

Home | Current Version | Previous Version | Graphics & Text | Print | Product List | Glossary On
Versions: 1 2 3 4 5 6 7 8 9 10 11 12 13 14 15 16 17 18 19 20 21 22 23 24 25 26 27 28 29 30 31 32 33 34 35 36 37 38 39 40 41 42 43 44 45 46 47 48 49 50
000
FPUS83 KFGF 250710
OPUFGF
PRAIRIE TO PINES WEATHER ROUNDUP
NATIONAL WEATHER SERVICE EASTERN NORTH DAKOTA/GRAND FORKS ND
100 AM CST SUN JAN 25 2015

 **SATELLITE DATA USED TO AUGMENT SKY COVER AT AUTOMATED STATIONS**
 *****  WEATHER ACROSS EASTERN NORTH DAKOTA  *****

CITY           SKY/WX    TMP DP  RH WIND       PRES   REMARKS
GRAND FORKS    CLOUDY    20  12  71 N12       29.90R WCI   8
GRAND FORKS AF CLOUDY    18  14  84 N8        29.91R WCI   7
GRAND CITY NWS   N/A     19 N/A N/A NE6         N/A  WCI  11
BUXTON         NOT AVBL
DEVILS LAKE    CLOUDY    18  12  79 N5        29.87R WCI  11
FARGO          MOCLDY    26  20  77 N14       29.84R WCI  14
WAHPETON ARPT  CLOUDY    30  27  86 N14       29.81R WCI  20
$$

 *****  WEATHER ACROSS CENTRAL AND WESTERN NORTH DAKOTA  *****

CITY           SKY/WX    TMP DP  RH WIND       PRES   REMARKS
JAMESTOWN      LGT SNOW  24  21  88 N6        29.84R FOG     WCI  17
BISMARCK       LGT RAIN  37  32  82 NW16G23   29.86R
MINOT          CLOUDY    29  27  92 N5        29.84S FOG     WCI  24
MINOT AFB      CLOUDY    27  27 100 N2        29.85R
GARRISON         N/A     35  33  92 NW16      29.84R
WILLISTON      CLOUDY    36  30  79 W12       29.93R
DICKINSON      CLEAR     34  29  82 W16       29.89R WCI  24
HETTINGER      CLEAR     33  29  85 NW13      29.93S WCI  24
$$

 *****  OTHER OBSERVATIONS NORTHEAST NORTH DAKOTA  *****

CITY           SKY/WX    TMP DP  RH WIND       PRES   REMARKS
WALHALLA         N/A     16  14  93 N7        29.94R WCI   6
LANGDON        FAIR      12   9  85 NE6       29.87R WCI   3
CAVALIER       FAIR      16  12  86 NW6       29.93R WCI   7
GRAFTON        NOT AVBL
CANDO          FLURRIES  16  14  93 NE6       29.90R WCI   7
FORT TOTTEN      N/A     17  15  90 CALM      29.95S
ROLLA          FLURRIES  16  14  93 NE6       29.88R WCI   7
RUGBY          CLOUDY    18  18 100 E7        29.88R WCI   8
 ***** THE ABOVE OBSERVATIONS ARE NON NWS ARE NOT QUALITY
        CONTROLLED AND MAY MIS-REPORT RAIN FOR SNOW...
$$

 *****  OTHER OBSERVATIONS SOUTHEAST NORTH DAKOTA *****

CITY           SKY/WX    TMP DP  RH WIND       PRES   REMARKS
COOPERSTOWN    NOT AVBL
VALLEY CITY    NOT AVBL
OAKES            N/A     27  27 100 NW10      29.84R FOG     WCI  17
GWINNER        CLOUDY    28  28 100 N15       29.84R WCI  17
BUFFALO        NOT AVBL
WYNDMERE         N/A     28  28 100 N12         N/A  WCI  18
 ***** THE ABOVE OBSERVATIONS ARE NON NWS ARE NOT QUALITY
       CONTROLLED AND MAY MIS-REPORT RAIN FOR SNOW...
$$

  *****  WEATHER ACROSS NORTHERN MINNESOTA  *****

CITY           SKY/WX    TMP DP  RH WIND       PRES   REMARKS
FLAG ISLAND    MOCLDY     9   0  66 E6        29.94R WCI  -1
WARROAD        CLOUDY    10   3  72 NE12      29.93R WCI  -4
ROSEAU         CLOUDY    12   7  79 NE14      29.93R WCI  -3
HALLOCK        CLOUDY    19  10  68 E7        29.93R WCI  10
THF RVR FALLS  MOCLDY    18  10  73 NE8       29.88R WCI   7
HALSTAD          N/A     22  14  72 N12         N/A  WCI  10
FOSSTON        CLOUDY    16  10  79 NE5       29.85R WCI   9
BAUDETTE       CLOUDY    11   2  67 E10       29.90R WCI  -3
WASKISH        CLOUDY    12   7  79 NE10      29.88R WCI  -1
CROOKSTON      CLOUDY    19  12  73 NE8       29.90R WCI   9
$$
  *****  WEATHER ACROSS CENTRAL AND WEST MINNESOTA  *****

CITY           SKY/WX    TMP DP  RH WIND       PRES   REMARKS
BEMIDJI        CLOUDY    18  10  72 NE8       29.83R WCI   8
PARK RAPIDS    CLOUDY    27  19  72 NE8       29.78R WCI  19
WADENA         CLOUDY    28  25  86 NE8       29.77R WCI  20
DETROIT LAKES  CLOUDY    30  28  93 N3        29.80R
MOORHEAD       CLOUDY    28  27  93 N13       29.84R WCI  18
FERGUS FALLS   CLOUDY    30  30 100 N8        29.81R WCI  23
ELBOW LAKE     CLOUDY    31  30  94 NE6       29.76R
MORRIS MN      LGT SNOW  32  30  93 N9        29.75R WCI  24
STAPLES        CLOUDY    28  25  86 NE7       29.76R WCI  21
WHEATON        MIX PCPN  30  30 100 N9        29.81R WCI  22
$$
  *****  WEATHER ELSEWHERE ACROSS MINNESOTA  *****

CITY           SKY/WX    TMP DP  RH WIND       PRES   REMARKS
DULUTH         FLURRIES  20  12  71 E17       29.82R WCI   5
INTRNTL FALLS  CLOUDY     6  -3  66 E12       29.93R WCI  -9
ELY            PTCLDY     3   0  85 NE3       29.89R
CLOQUET        CLOUDY    21  16  79 E14G20    29.82R WCI   8
BRAINERD       CLOUDY    27  22  81 E10       29.78R WCI  17
HIBBING        CLOUDY    21  13  71 E9        29.83R WCI  11
ALEXANDRIA     CLOUDY    32  29  88 N7        29.75R
SAINT CLOUD    CLOUDY    31  26  82 NE8G20    29.74R WCI  23
MINNEAPOLIS    LGT SNOW  33  31  92 N9        29.71R FOG
$$

  *****  WEATHER ACROSS SOUTH DAKOTA  *****

CITY           SKY/WX    TMP DP  RH WIND       PRES   REMARKS
SIOUX FALLS    LGT SNOW  33  31  92 N16       29.68R FOG     WCI  23
BROOKINGS      NOT AVBL
WATERTOWN      CLOUDY    32  29  88 N15       29.74R WCI  22
HURON          CLOUDY    32  30  92 N16       29.80R FOG     WCI  21
SISSETON         N/A     32  32 100 N13       29.79R WCI  22
ABERDEEN       LGT SNOW  31  28  89 N14       29.83R FOG     WCI  21
MITCHELL       LGT SNOW  33  32  96 N21G29    29.78R FOG     WCI  21
PIERRE         CLOUDY    39  35  86 NW21G26   29.86R
MOBRIDGE       CLOUDY    39  35  86 NW14      29.83R
RAPID CITY     CLEAR     38  25  59 NW24      29.98S
$$

  *****  SOME WEATHER IN NEARBY STATES *****

CITY           SKY/WX    TMP DP  RH WIND       PRES   REMARKS
GLASGOW MT     CLEAR     32  26  78 W10       30.03R WCI  24
GREAT FALLS MT CLOUDY    44  36  73 SW13      30.08S
CHEYENNE WY    CLOUDY    38  26  62 NW20G28   30.12F
SCOTTSBLUFF NE PTCLDY    38  28  67 W25G32    30.06F
OMAHA NE       LGT RAIN  42  38  85 NW22      29.61S
DES MOINES IA  LGT RAIN  41  37  86 S3        29.55F FOG
DAVENPORT IA   CLOUDY    35  31  85 E6        29.59F
CHICAGO IL     CLOUDY    32  29  88 NE5       29.67S
EAU CLAIRE WI  CLOUDY    33  26  75 NE14      29.71R WCI  23
LA CROSSE WI   CLOUDY    37  30  75 E8        29.65R
$$

  *****  SOME NATIONAL WEATHER *****

CITY           SKY/WX    TMP DP  RH WIND       PRES   REMARKS
LA GUARDIA NY  MOCLDY    36  25  64 W15G24    29.53R
RALEIGH NC     CLEAR     35  24  64 W3        29.84R
ATLANTA GA     CLEAR     36  27  69 W5        29.96F
NEW ORLEANS LA PTCLDY    43  39  86 SW5       30.09S
OKLAHOMA CITY  CLOUDY    51  31  46 W15       29.89F
ALBUQUERQUE NM PTCLDY    39  18  42 N14       30.26R
SALT LAKE CITY CLOUDY    34  29  82 CALM      30.48S
LOS ANGELES CA CLEAR     63  31  30 CALM      30.05R
BOISE ID       CLEAR     31  29  92 CALM      30.48R
SEATTLE WA     CLOUDY    56  54  93 SE3       30.24R
$$

*** WEATHER ACROSS MANITOBA...SASKATCHEWAN AND ONTARIO ***
                ***ONTARIO***

CITY           SKY/WX    TMP DP  RH WIND       PRES   REMARKS
GERALDTON      CLEAR    -11 -17  77 N6        29.95R WCI -25
THUNDER BAY    CLEAR     -4  -9  77 NW5       30.03R WCI -15
SIOUX LOOKOUT  CLEAR    -13 -18  77 N2        29.99R
TORONTO        MOCLDY    25  16  68 NW23G31   29.61R WCI  10
BIG TROUT LK   CLEAR    -20 -24  83 NW6       30.07R WCI -36
PICKLE LAKE    NOT AVBL
DRYDEN         CLEAR     -8 -11  84 NE7       29.97R WCI -22
KENORA         CLOUDY     3  -4  72 E8        29.94R WCI -10
$$
                *** MANITOBA***

CITY           SKY/WX    TMP DP  RH WIND       PRES   REMARKS
BRANDON        FLURRIES  10   7  85 NE10      29.95R WCI  -3
DAUPHIN        CLOUDY     9   7  92 E5        30.00S WCI   0
ISLAND LAKE    CRYSTALS -18 -26  69 CALM      30.10R
PILOT MOUND      N/A     12  10  92 N5          N/A  WCI   4
THE PAS        CRYSTALS   3  -2  78 SE12      29.98F WCI -13
THOMPSON       CLOUDY    -8 -13  77 VRB2      30.05F
WINNIPEG       MOCLDY    12   5  73 NE6       29.98R WCI   3
LYNN LAKE      FLURRIES  -4  -8  84 S8        29.89F WCI -19
CHURCHILL      CLEAR    -26 -33  68 W8        30.12S WCI -45
GILLAM         CLEAR    -24 -29  76 SW2       30.12R
$$
                ***SASKATCHEWAN***

CITY           SKY/WX    TMP DP  RH WIND       PRES   REMARKS
ESTEVAN        CLOUDY    34  32  93 NW13G20   29.88R WCI  25
KINDERSLEY     MOCLDY    21  18  86 SW8       29.96F WCI  12
LLOYDMINSTER   MOCLDY    30  25  80 SW10      29.87F WCI  21
PRINCE ALBERT  CLOUDY    18  14  86 S5        29.93S WCI  11
REGINA         PTCLDY    23  21  93 N20G26    29.96R WCI   8
YORKTON        CLOUDY     7   5  92 N9        29.94R WCI  -7



USA.gov is the U.S. government's official web portal to all federal, state and local government web resources and services.